Date String (YYYY-MM-DD hh:mm:ss) UTC,Instrument flags,Ambient pressure (hPa),Sample flow (lpm),Bypass flow (lpm),Sample temperature (°C),Ambient temperature (°C),ASC tube jacket temperature (°C),LED temperature (°C),Box temperature (°C),Sample RH (%),Span deviation,Mass concentration (μg/m³),Mass concentration (μg/m³),Mass concentration (μg/m³)
DateTimeUTC,F1_M11,P_M11,Q1_M11,Q2_M11,T1_M11,T2_M11,T3_M11,T4_M11,T5_M11,U1_M11,ZSPAN_M11,X2_M11,X0_M11,X1_M11
2023-05-21 00:00:00,,0834.9,4.99,0.00,29.5,27.9,00.0,37.9,31.1,22.1,0003.3,0007.20,0010.36,0006.88
2023-05-21 00:01:00,,0834.5,4.99,0.00,29.5,27.8,00.0,37.9,31.0,23.0,0003.3,0007.08,0010.22,0006.75
2023-05-21 00:02:00,,0834.4,5.01,0.00,29.5,27.8,00.0,37.9,31.0,22.9,0003.4,0006.86,0009.95,0006.57
2023-05-21 00:03:00,,0834.4,5.00,0.00,29.5,27.8,00.0,37.9,31.1,22.2,0003.3,0006.65,0010.17,0006.37
2023-05-21 00:04:00,,0834.4,4.98,0.00,29.5,27.9,00.0,37.9,31.1,22.2,0003.2,0006.44,0010.07,0006.15
2023-05-21 00:05:00,,0834.4,5.01,0.00,29.5,27.9,00.0,37.9,31.1,22.2,0003.5,0006.26,0009.90,0005.96
2023-05-21 00:06:00,,0834.4,5.01,0.00,29.5,27.9,00.0,37.9,31.1,22.8,0003.6,0006.05,0009.63,0005.78
2023-05-21 00:07:00,,0834.4,5.00,0.00,29.5,27.9,00.0,37.9,31.1,23.2,0003.3,0005.87,0009.41,0005.60
2023-05-21 00:08:00,,0834.4,4.99,0.00,29.5,27.9,00.0,37.9,31.1,22.9,0003.5,0005.74,0009.32,0005.47
2023-05-21 00:09:00,,0834.5,4.99,0.00,29.5,27.9,00.0,37.9,31.1,23.1,0003.8,0005.64,0009.25,0005.36
2023-05-21 00:10:00,,0834.5,5.00,0.00,29.5,27.9,00.0,37.9,31.1,24.2,0003.9,0005.58,0009.24,0005.28
2023-05-21 00:11:00,,0834.4,5.00,0.00,29.5,28.0,00.0,37.9,31.1,23.7,0004.0,0005.47,0009.14,0005.17
2023-05-21 00:12:00,,0834.3,5.00,0.00,29.5,28.0,00.0,37.9,31.1,23.5,0004.1,0005.37,0009.20,0005.06
2023-05-21 00:13:00,,0834.3,5.00,0.00,29.5,27.9,00.0,37.9,31.1,23.5,0003.8,0005.33,0009.12,0005.01
2023-05-21 00:14:00,,0834.4,5.00,0.00,29.5,27.9,00.0,37.9,31.1,23.4,0004.0,0005.32,0008.63,0005.00
2023-05-21 00:15:00,,0834.4,5.00,0.00,29.5,27.9,00.0,37.9,31.1,23.6,0004.1,0005.34,0008.57,0005.01
2023-05-21 00:16:00,,0834.4,5.00,0.00,29.5,27.9,00.0,37.9,31.1,23.9,0003.9,0005.37,0008.59,0005.02
2023-05-21 00:17:00,,0834.4,5.00,0.00,29.5,28.0,00.0,37.9,31.1,24.2,0003.7,0005.42,0008.89,0005.05
2023-05-21 00:18:00,,0834.4,5.00,0.00,29.5,28.0,00.0,37.9,31.1,24.0,0003.8,0005.49,0009.22,0005.11
2023-05-21 00:19:00,,0834.4,5.00,0.00,29.5,28.0,00.0,37.9,31.1,23.9,0003.6,0005.55,0009.26,0005.15
2023-05-21 00:20:00,,0834.4,5.00,0.00,29.5,28.0,00.0,37.9,31.1,24.2,0003.6,0005.56,0009.23,0005.17
2023-05-21 00:21:00,,0834.4,5.00,0.00,29.5,28.0,00.0,37.9,31.1,24.0,0003.6,0005.54,0009.13,0005.18
2023-05-21 00:22:00,,0834.4,5.00,0.00,29.5,27.9,00.0,37.9,31.1,24.1,0003.6,0005.54,0009.08,0005.20
2023-05-21 00:23:00,,0834.4,5.01,0.00,29.5,27.9,00.0,37.9,31.1,23.9,0003.4,0005.56,0008.88,0005.24
2023-05-21 00:24:00,,0834.4,4.98,0.00,29.5,28.0,00.0,37.9,31.1,24.5,0003.3,0005.60,0008.98,0005.27
2023-05-21 00:25:00,,0834.4,5.00,0.00,29.5,28.0,00.0,37.9,31.2,23.9,0003.1,0005.63,0009.01,0005.29
2023-05-21 00:26:00,,0834.4,5.01,0.00,29.5,28.0,00.0,37.9,31.2,23.8,0003.2,0005.66,0009.01,0005.32
2023-05-21 00:27:00,,0834.4,5.00,0.00,29.5,28.0,00.0,37.9,31.1,23.5,0003.4,0005.66,0009.07,0005.33
2023-05-21 00:28:00,,0834.4,5.00,0.00,29.5,28.0,00.0,37.9,31.1,23.6,0003.5,0005.67,0009.32,0005.36
2023-05-21 00:29:00,,0834.4,5.00,0.00,29.6,28.0,00.0,37.9,31.2,23.5,0003.3,0005.65,0009.06,0005.36
2023-05-21 00:30:00,,0834.4,5.01,0.00,29.6,28.0,00.0,37.9,31.2,23.2,0003.1,0005.65,0009.06,0005.37
2023-05-21 00:31:00,,0834.4,5.00,0.00,29.6,28.0,00.0,37.9,31.2,23.7,0003.0,0005.67,0009.07,0005.39
2023-05-21 00:32:00,,0834.4,5.00,0.00,29.6,28.0,00.0,37.9,31.2,24.0,0003.1,0005.71,0009.34,0005.42
2023-05-21 00:33:00,,0834.4,5.00,0.00,29.6,28.0,00.0,37.9,31.2,24.0,0002.9,0005.76,0010.13,0005.44
2023-05-21 00:34:00,,0834.5,5.00,0.00,29.6,28.0,00.0,37.9,31.2,24.2,0002.8,0005.78,0010.22,0005.46
2023-05-21 00:35:00,,0834.4,5.00,0.00,29.6,28.0,00.0,37.9,31.2,24.2,0002.7,0005.80,0010.23,0005.49
2023-05-21 00:36:00,,0834.5,4.99,0.00,29.6,28.1,00.0,37.9,31.2,24.1,0002.5,0005.81,0010.25,0005.51
2023-05-21 00:37:00,,0834.4,5.00,0.00,29.6,28.1,00.0,37.9,31.2,24.2,0002.4,0005.83,0010.26,0005.53
2023-05-21 00:38:00,,0834.4,5.00,0.00,29.6,28.1,00.0,37.9,31.2,24.0,0002.2,0005.88,0010.35,0005.54
2023-05-21 00:39:00,,0834.5,5.00,0.00,29.6,28.1,00.0,38.0,31.2,24.1,0001.8,0005.90,0009.86,0005.55
2023-05-21 00:40:00,,0834.5,5.00,0.00,29.6,28.1,00.0,38.0,31.2,24.2,0001.9,0005.94,0009.95,0005.57
2023-05-21 00:41:00,,0834.5,4.99,0.00,29.6,28.1,00.0,38.0,31.2,24.5,0002.3,0005.95,0010.24,0005.57
2023-05-21 00:42:00,,0834.5,5.00,0.00,29.6,28.1,00.0,38.0,31.3,24.2,0002.5,0005.96,0010.38,0005.58
2023-05-21 00:43:00,,0834.5,5.00,0.00,29.7,28.2,00.0,38.0,31.3,24.2,0002.0,0005.96,0010.33,0005.59
2023-05-21 00:44:00,,0834.5,5.00,0.00,29.7,28.2,00.0,38.0,31.3,24.0,0002.0,0005.94,0009.46,0005.59
2023-05-21 00:45:00,,0834.5,5.01,0.00,29.7,28.2,00.0,38.0,31.3,24.1,0002.2,0005.97,0009.47,0005.61
2023-05-21 00:46:00,,0834.5,5.01,0.00,29.7,28.2,00.0,38.0,31.3,24.5,0002.5,0005.98,0009.45,0005.61
2023-05-21 00:47:00,,0834.5,5.01,0.00,29.7,28.2,00.0,38.0,31.3,24.5,0002.7,0005.97,0009.38,0005.60
2023-05-21 00:48:00,,0834.5,5.00,0.00,29.7,28.2,00.0,38.0,31.3,24.6,0002.9,0005.95,0009.33,0005.60
2023-05-21 00:49:00,,0834.4,4.98,0.00,29.7,28.3,00.0,38.0,31.3,24.6,0002.9,0005.91,0009.24,0005.59
2023-05-21 00:50:00,,0834.5,5.00,0.00,29.7,28.3,00.0,38.1,31.3,24.7,0003.0,0005.91,0009.28,0005.59
2023-05-21 00:51:00,,0834.4,5.01,0.00,29.8,28.3,00.0,38.1,31.4,24.5,0003.1,0005.92,0009.38,0005.60
2023-05-21 00:52:00,,0834.5,5.00,0.00,29.8,28.3,00.0,38.1,31.4,24.2,0003.1,0005.93,0009.12,0005.62
2023-05-21 00:53:00,,0834.5,5.00,0.00,29.8,28.3,00.0,38.1,31.4,24.1,0003.4,0005.97,0008.97,0005.65
2023-05-21 00:54:00,,0834.5,5.01,0.00,29.8,28.3,00.0,38.1,31.4,23.8,0003.5,0006.07,0009.08,0005.74
2023-05-21 00:55:00,,0834.5,5.00,0.00,29.8,28.4,00.0,38.1,31.4,23.5,0003.5,0006.21,0009.30,0005.85
2023-05-21 00:56:00,,0834.5,4.99,0.00,29.8,28.4,00.0,38.1,31.4,23.5,0003.5,0006.31,0009.45,0005.96
2023-05-21 00:57:00,,0834.5,5.01,0.00,29.8,28.4,00.0,38.1,31.4,23.7,0003.6,0006.45,0010.44,0006.09
2023-05-21 00:58:00,,0834.5,5.01,0.00,29.8,28.4,00.0,38.1,31.4,24.1,0003.7,0006.57,0010.61,0006.21
2023-05-21 00:59:00,,0834.5,5.00,0.00,29.8,28.5,00.0,38.2,31.5,23.4,0003.5,0006.66,0010.70,0006.29
